Regional Weather Roundup
Issued by NWS

Home | Current Version | Previous Version | Text Only | Print | Product List | Glossary On
Versions: 1 2 3 4 5 6 7 8 9 10 11 12 13 14 15 16 17 18 19 20 21 22 23 24 25 26 27 28 29 30 31 32 33 34 35 36 37 38 39 40 41 42 43 44 45 46 47 48 49 50
000
ASUS44 KMEG 261610
RWRTN
TENNESSEE HOURLY STATE WEATHER ROUNDUP
NATIONAL WEATHER SERVICE MEMPHIS TN
1000 AM CST WED NOV 26 2014

TNZ002-004-019-021-049-052-054-088>092-261700-
WEST TENNESSEE

CITY           SKY/WX    TMP DP  RH WIND       PRES   REMARKS
MEMPHIS INTL   CLOUDY    46  26  45 S12G21    30.10F
NWS MEMPHIS      N/A     45 N/A N/A MISG        N/A
JACKSON        SUNNY     43  26  51 SE6       30.13F
DYERSBURG      MOSUNNY   41  21  45 SE9       30.12F
UNION CITY     SUNNY     37  30  75 SE8       30.10F WCI  31
PARIS            N/A     37  28  70 SE8       30.12F WCI  31
HUNTINGDON     SUNNY     38  29  70 SE6       30.13F WCI  33
LEXINGTON      SUNNY     39  30  70 SE3       30.13S
SAVANNAH       SUNNY     41  30  65 S6        30.16S
$$

TNZ008-025-027-028-033-062-065-066-261700-
NORTH MIDDLE TENNESSEE

CITY           SKY/WX    TMP DP  RH WIND       PRES   REMARKS
NASHVILLE      MOSUNNY   42  29  59 CALM      30.15S
CLARKSVILLE    SUNNY     38  30  73 SW3       30.15S
SMYRNA         MOSUNNY   41  28  60 CALM      30.16F
COOKEVILLE     SUNNY     43  30  61 CALM      30.12S
CROSSVILLE     SUNNY     43  26  51 NW7       30.09S
$$

TNZ061-075-076-078-094-096-097-261700-
SOUTH MIDDLE TENNESSEE

CITY           SKY/WX    TMP DP  RH WIND       PRES   REMARKS
FAYETTEVILLE   SUNNY     43  27  52 MISG      30.15S
TULLAHOMA      SUNNY     39  27  60 CALM      30.14S
WINCHESTER     SUNNY     41  28  60 NW3       30.15S
MCMINNVILLE    SUNNY     43  28  56 CALM      30.13R
COLUMBIA       SUNNY     41  37  87 CALM      30.13F
SHELBYVILLE    SUNNY     39  32  75 S3        30.16R
$$

TNZ017-018-042-046-047-261700-
NORTHEAST TENNESSEE

CITY           SKY/WX    TMP DP  RH WIND       PRES   REMARKS
TRI CITIES     CLOUDY    41  37  86 CALM      30.04S
ELIZABETHTON   CLOUDY    37  36  93 SW5       30.03S WCI  34
$$

TNZ012-013-036-069-073-074-261700-
CENTRAL EAST TENNESSEE

CITY           SKY/WX    TMP DP  RH WIND       PRES   REMARKS
KNOXVILLE      MOSUNNY   46  32  58 SW8       30.08R
OAK RIDGE      SUNNY     49  29  46 VRB3      30.09S
GATLINBURG     SUNNY     48  28  46 W7        30.06S
MORRISTOWN     SUNNY     48  32  53 VRB3      30.04F
$$

TNZ083-085-099-261700-
SOUTHEAST TENNESSEE

CITY           SKY/WX    TMP DP  RH WIND       PRES   REMARKS
CHATTANOOGA    MOSUNNY   48  27  44 NW5       30.13R
$$

SKY/WX REPORTED AS FAIR MEANS FEW OR NO CLOUDS BELOW
12 THOUSAND FEET.




USA.gov is the U.S. government's official web portal to all federal, state and local government web resources and services.